Location: Cazarilh
(42.9578°N, 0.5819°E)
Time: 06:46:15
(UTC+00:00)

SL-16 R/B - Pass Details

Date: 11 December 2019
Orbit: 840 x 849 km, 71.0° (Epoch: 26 January)

Event Time Altitude Azimuth Distance (km) Brightness Sun altitude
Exits shadow 04:08:43 14° 167° (SSE) 2,209 4.5 -33.8°
Drops below altitude 10° 04:09:24 10° 166° (SSE) 2,463 4.7 -33.6°
Sets 04:11:50 0° 164° (SSE) 3,393 5.5 -33.2°
